Location: Auckland
(36.8670°S, 174.7670°E)
Time: 15:56:34
(UTC+13:00)

Cosmos 2219 Rocket - Pass Details

Date: 15 November 2019
Orbit: 827 x 847 km, 71.0° (Epoch: 07 December)

Event Time Altitude Azimuth Distance (km) Brightness Sun altitude
Rises 21:49:47 0° 214° (SW) 3,410 6.8 -18.0°
Reaches altitude 10° 21:52:32 10° 225° (SW) 2,465 5.9 -18.4°
Maximum altitude 21:57:18 29° 282° (WNW) 1,492 3.8 -19.1°
Drops below altitude 10° 22:02:02 10° 341° (NNW) 2,431 4.4 -19.8°
Enters shadow 22:02:25 - 343° (NNW) 2,555 4.4 -19.8°
